TimeCDT,TemperatureF,Dew PointF,Humidity,Sea Level PressureIn,VisibilityMPH,Wind Direction,Wind SpeedMPH,Gust SpeedMPH,PrecipitationIn,Events,Conditions,WindDirDegrees,DateUTC
12:15 AM,71.6,68.0,88,30.06,10.0,SSE,8.1,-,N/A,,Overcast,160,2013-10-30 05:15:00
12:35 AM,71.6,68.0,88,30.05,10.0,SSE,10.4,-,N/A,,Overcast,150,2013-10-30 05:35:00
12:55 AM,71.6,68.0,88,30.04,10.0,SSE,9.2,-,N/A,,Overcast,150,2013-10-30 05:55:00
1:15 AM,71.6,68.0,88,30.03,10.0,SSE,10.4,17.3,N/A,,Mostly Cloudy,150,2013-10-30 06:15:00
1:35 AM,71.6,68.0,88,30.03,10.0,SSE,10.4,17.3,N/A,,Mostly Cloudy,150,2013-10-30 06:35:00
1:55 AM,71.6,69.8,94,30.04,10.0,SSE,6.9,-,N/A,,Mostly Cloudy,160,2013-10-30 06:55:00
2:15 AM,71.6,69.8,94,30.04,10.0,SSE,8.1,-,N/A,,Overcast,150,2013-10-30 07:15:00
2:35 AM,71.6,69.8,94,30.03,10.0,SE,6.9,-,N/A,,Mostly Cloudy,140,2013-10-30 07:35:00
2:55 AM,71.6,69.8,94,30.03,10.0,SSE,5.8,-,N/A,,Overcast,150,2013-10-30 07:55:00
3:15 AM,71.6,69.8,94,30.02,10.0,SSE,8.1,-,N/A,,Overcast,150,2013-10-30 08:15:00
3:35 AM,73.4,69.8,88,30.01,10.0,SE,6.9,-,N/A,,Overcast,140,2013-10-30 08:35:00
3:55 AM,73.4,69.8,88,30.00,10.0,SE,6.9,-,N/A,,Overcast,140,2013-10-30 08:55:00
4:15 AM,73.4,69.8,88,30.00,10.0,SE,8.1,-,N/A,,Overcast,130,2013-10-30 09:15:00
4:35 AM,71.6,69.8,94,29.99,9.0,SE,6.9,-,N/A,,Overcast,130,2013-10-30 09:35:00
4:55 AM,71.6,69.8,94,29.98,2.5,SE,4.6,-,N/A,,Overcast,130,2013-10-30 09:55:00
5:15 AM,71.6,69.8,94,29.97,1.5,ESE,5.8,-,N/A,Thunderstorm,Thunderstorm,120,2013-10-30 10:15:00
5:35 AM,71.6,69.8,94,29.98,5.0,South,8.1,-,N/A,Thunderstorm,Overcast,170,2013-10-30 10:35:00
5:55 AM,71.6,69.8,94,29.98,8.0,South,5.8,-,N/A,Thunderstorm,Overcast,170,2013-10-30 10:55:00
6:15 AM,71.6,71.6,100,29.98,6.0,South,4.6,-,N/A,,Overcast,180,2013-10-30 11:15:00
6:35 AM,71.6,71.6,100,29.97,5.0,SSE,4.6,-,N/A,,Overcast,150,2013-10-30 11:35:00
6:48 AM,71.6,71.6,100,29.97,6.0,SSE,5.8,-,N/A,Rain,Light Rain,160,2013-10-30 11:48:00
7:50 AM,71.6,71.6,100,29.97,6.0,SSE,6.9,-,N/A,Rain,Light Rain,150,2013-10-30 12:50:00
8:11 AM,73.4,71.6,94,29.97,2.5,SSE,5.8,-,N/A,Rain,Light Rain,150,2013-10-30 13:11:00
8:46 AM,73.4,71.6,94,29.98,2.5,SSE,4.6,-,N/A,Rain,Light Rain,160,2013-10-30 13:46:00
9:49 AM,73.4,73.4,100,29.99,6.0,South,6.9,-,N/A,Rain,Light Rain,180,2013-10-30 14:49:00
10:48 AM,75.2,73.4,94,29.98,8.0,SSE,10.4,17.3,N/A,Rain,Light Rain,160,2013-10-30 15:48:00
11:47 AM,77.0,73.4,89,29.97,10.0,South,11.5,-,N/A,,Overcast,180,2013-10-30 16:47:00
12:50 PM,78.8,71.6,78,29.95,10.0,South,16.1,-,N/A,,Overcast,180,2013-10-30 17:50:00
1:46 PM,78.8,71.6,78,29.92,10.0,SSW,5.8,-,N/A,,Overcast,200,2013-10-30 18:46:00
2:46 PM,80.6,71.6,74,29.90,10.0,South,4.6,-,N/A,,Overcast,190,2013-10-30 19:46:00
3:47 PM,80.6,71.6,74,29.86,10.0,SSW,5.8,-,N/A,,Overcast,200,2013-10-30 20:47:00
4:47 PM,75.2,71.6,89,29.86,10.0,South,13.8,21.9,N/A,Rain-Thunderstorm,Thunderstorms and Rain,180,2013-10-30 21:47:00
5:15 PM,73.4,69.8,88,29.85,10.0,SW,3.5,-,N/A,,Mostly Cloudy,230,2013-10-30 22:15:00
5:47 PM,73.4,71.6,94,29.84,10.0,Calm,Calm,-,N/A,,Mostly Cloudy,0,2013-10-30 22:47:00
6:46 PM,73.4,71.6,94,29.84,10.0,Calm,Calm,-,N/A,,Mostly Cloudy,0,2013-10-30 23:46:00
7:53 PM,73.4,71.6,94,29.85,10.0,Calm,Calm,-,N/A,,Overcast,0,2013-10-31 00:53:00
8:45 PM,75.2,73.4,94,29.84,10.0,SE,3.5,-,N/A,Rain-Thunderstorm,Thunderstorms and Rain,130,2013-10-31 01:45:00
9:45 PM,73.4,71.6,94,29.84,5.0,SE,4.6,-,N/A,Rain-Thunderstorm,Thunderstorms and Rain,130,2013-10-31 02:45:00
10:15 PM,71.6,69.8,94,29.84,10.0,SSE,4.6,-,N/A,Thunderstorm,Thunderstorm,160,2013-10-31 03:15:00
10:35 PM,71.6,69.8,94,29.86,2.0,SE,10.4,23.0,N/A,Thunderstorm,Thunderstorm,140,2013-10-31 03:35:00
10:55 PM,71.6,69.8,94,29.86,3.0,Calm,Calm,-,N/A,Thunderstorm,Thunderstorm,0,2013-10-31 03:55:00
11:15 PM,71.6,69.8,94,29.84,4.0,Calm,Calm,-,N/A,Thunderstorm,Thunderstorm,0,2013-10-31 04:15:00
11:35 PM,71.6,69.8,94,29.84,2.5,Calm,Calm,-,N/A,Thunderstorm,Thunderstorm,0,2013-10-31 04:35:00
11:55 PM,71.6,69.8,94,29.84,7.0,NW,6.9,-,N/A,Thunderstorm,Thunderstorm,310,2013-10-31 04:55:00